King Salmon, AK

12:44 PM AKST on February 06, 2016 (GMT -0900)
Port Heiden

Weather History for PAPH - October, 2011

Change the Weather History Date:

Monday, October 3, 2011

  Actual Average Record
Temperature  
Mean Temperature 44 °F -  
Max Temperature 46 °F 46 °F - (-1)
Min Temperature 42 °F 36 °F - (-1)
Degree Days  
Heating Degree Days 21    
Moisture  
Dew Point 39 °F    
Average Humidity 83    
Maximum Humidity 100    
Minimum Humidity 71    
Precipitation  
Precipitation 0.00 in - - ()
Sea Level Pressure  
Sea Level Pressure 29.31 in    
Wind  
Wind Speed 12 mph (SSW)    
Max Wind Speed 17 mph    
Max Gust Speed 22 mph    
Visibility 10 miles    
Events      
Averages and records for this station are not official NWS values.
T = Trace of Precipitation, MM = Missing Value Source: NWS Daily Summary

Daily Weather History Graph

Daily Weather History Graph

Search for Another Location

Airport or City:

Trip Planner

Search our weather history database for the weather conditions in past years. The results will help you decide how hot, cold, wet, or windy it might be!

Date:

Astronomy

Oct. 03, 2011 Rise Set
Actual Time 8:42 AM AKDT 8:03 PM AKDT
Civil Twilight 8:04 AM AKDT 8:41 PM AKDT
Nautical Twilight 7:19 AM AKDT 9:25 PM AKDT
Astronomical Twilight 6:33 AM AKDT 10:11 PM AKDT
Moon 4:52 PM AKDT (10/3) No Moon Set
Length of Visible Light 12h 37m
Length of Day
11h 21m
Waxing Crescent, 47% of the Moon is Illuminated
Oct 3
Waxing Crescent
Oct 3
First Quarter
Oct 11
Full
Oct 19
Last Quarter
Oct 26
New

Hourly Weather History & Observations

Time (AKDT) Temp. Windchill Dew Point Humidity Pressure Visibility Wind Dir Wind Speed Gust Speed Precip Events Conditions
12:16 AM 42.8 °F 38.0 °F 37.4 °F 81% 29.34 in 10.0 mi SSE 8.1 mph - N/A   Overcast
12:36 AM 42.8 °F 38.6 °F 37.4 °F 81% 29.34 in 10.0 mi SSE 6.9 mph - N/A   Overcast
12:56 AM 42.8 °F 38.6 °F 37.4 °F 81% 29.33 in 10.0 mi SSE 6.9 mph - N/A   Overcast
1:16 AM 42.8 °F 38.6 °F 37.4 °F 81% 29.33 in 10.0 mi SE 6.9 mph - N/A   Overcast
1:36 AM 42.8 °F 38.0 °F 39.2 °F 87% 29.32 in 10.0 mi SSE 8.1 mph - N/A   Overcast
1:56 AM 42.8 °F 37.5 °F 39.2 °F 87% 29.31 in 10.0 mi SSE 9.2 mph - N/A   Overcast
2:16 AM 42.8 °F 37.0 °F 39.2 °F 87% 29.31 in 10.0 mi SSE 10.4 mph - N/A   Overcast
2:36 AM 42.8 °F 36.2 °F 39.2 °F 87% 29.30 in 10.0 mi SSE 12.7 mph - N/A   Overcast
2:56 AM 42.8 °F 36.2 °F 39.2 °F 87% 29.29 in 10.0 mi SSE 12.7 mph - N/A   Overcast
3:16 AM 42.8 °F 35.8 °F 39.2 °F 87% 29.28 in 10.0 mi SSE 13.8 mph - N/A   Overcast
3:36 AM 42.8 °F 35.8 °F 37.4 °F 81% 29.28 in 10.0 mi SSE 13.8 mph - N/A   Overcast
3:56 AM 42.8 °F 35.8 °F 37.4 °F 81% 29.27 in 10.0 mi SSE 13.8 mph - N/A   Overcast
4:16 AM 42.8 °F 34.8 °F 39.2 °F 87% 29.26 in 10.0 mi SSE 17.3 mph - N/A   Overcast
4:36 AM 42.8 °F 35.4 °F 39.2 °F 87% 29.26 in 10.0 mi SSE 15.0 mph - N/A   Overcast
4:56 AM 42.8 °F 35.8 °F 39.2 °F 87% 29.25 in 10.0 mi SSE 13.8 mph - N/A   Mostly Cloudy
5:16 AM 42.8 °F 35.4 °F 39.2 °F 87% 29.25 in 10.0 mi SSE 15.0 mph - N/A   Mostly Cloudy
5:36 AM 44.6 °F 37.8 °F 37.4 °F 76% 29.24 in 10.0 mi SSE 15.0 mph - N/A   Scattered Clouds
5:56 AM 44.6 °F 37.8 °F 39.2 °F 81% 29.24 in 10.0 mi SSE 15.0 mph - N/A   Mostly Cloudy
6:16 AM 44.6 °F 37.8 °F 39.2 °F 81% 29.24 in 10.0 mi SSE 15.0 mph - N/A   Overcast
6:36 AM 44.6 °F 39.2 °F 39.2 °F 81% 29.24 in 10.0 mi SSE 10.4 mph - N/A   Overcast
6:56 AM 42.8 °F 37.0 °F 39.2 °F 87% 29.24 in 10.0 mi South 10.4 mph - N/A   Overcast
7:16 AM 42.8 °F 37.0 °F 39.2 °F 87% 29.24 in 10.0 mi South 10.4 mph - N/A   Overcast
7:36 AM 44.6 °F 38.4 °F 41.0 °F 87% 29.24 in 10.0 mi SSW 12.7 mph - N/A   Overcast
7:56 AM 44.6 °F 39.7 °F 41.0 °F 87% 29.24 in 10.0 mi South 9.2 mph - N/A   Overcast
8:16 AM 42.8 °F 37.0 °F 41.0 °F 93% 29.24 in 10.0 mi SSW 10.4 mph - N/A   Overcast
8:36 AM 42.8 °F 35.4 °F 41.0 °F 93% 29.24 in 10.0 mi South 15.0 mph - N/A   Overcast
8:56 AM 42.8 °F 36.2 °F 39.2 °F 87% 29.23 in 10.0 mi SSE 12.7 mph - N/A   Overcast
9:16 AM 42.8 °F 35.8 °F 41.0 °F 93% 29.24 in 10.0 mi South 13.8 mph - N/A   Overcast
9:36 AM 42.8 °F 35.1 °F 42.8 °F 100% 29.23 in 10.0 mi SSW 16.1 mph - N/A   Overcast
9:56 AM 42.8 °F 36.2 °F 42.8 °F 100% 29.24 in 6.0 mi SSW 12.7 mph - N/A   Overcast
10:16 AM 44.6 °F 38.4 °F 42.8 °F 93% 29.25 in 8.0 mi WSW 12.7 mph 21.9 mph N/A   Overcast
10:36 AM 44.6 °F 37.8 °F 41.0 °F 87% 29.25 in 10.0 mi West 15.0 mph 20.7 mph N/A   Overcast
10:56 AM 44.6 °F 38.8 °F 41.0 °F 87% 29.26 in 10.0 mi WSW 11.5 mph 17.3 mph N/A   Mostly Cloudy
11:16 AM 44.6 °F 37.2 °F 39.2 °F 81% 29.27 in 10.0 mi West 17.3 mph - N/A   Overcast
11:36 AM 44.6 °F 38.1 °F 41.0 °F 87% 29.28 in 10.0 mi West 13.8 mph - N/A   Mostly Cloudy
11:56 AM 44.6 °F 37.2 °F 42.8 °F 93% 29.29 in 3.0 mi West 17.3 mph 20.7 mph N/A   Overcast
12:16 PM 44.6 °F 37.4 °F 41.0 °F 87% 29.29 in 7.0 mi West 16.1 mph - N/A   Mostly Cloudy
12:36 PM 46.4 °F 40.1 °F 42.8 °F 87% 29.30 in 10.0 mi West 15.0 mph - N/A   Mostly Cloudy
12:56 PM 46.4 °F 40.1 °F 39.2 °F 76% 29.31 in 10.0 mi West 15.0 mph - N/A   Overcast
1:16 PM 46.4 °F 40.1 °F 41.0 °F 81% 29.32 in 10.0 mi West 15.0 mph - N/A   Overcast
1:36 PM 44.6 °F 37.8 °F 39.2 °F 81% 29.33 in 10.0 mi West 15.0 mph 19.6 mph N/A   Overcast
1:56 PM 46.4 °F 40.4 °F 37.4 °F 71% 29.34 in 10.0 mi West 13.8 mph 20.7 mph N/A   Overcast
2:16 PM 44.6 °F 38.8 °F 37.4 °F 76% 29.35 in 10.0 mi WSW 11.5 mph 19.6 mph N/A   Overcast
2:36 PM 44.6 °F 38.1 °F 39.2 °F 81% 29.36 in 10.0 mi West 13.8 mph 19.6 mph N/A   Overcast
2:56 PM 44.6 °F 38.1 °F 39.2 °F 81% 29.37 in 10.0 mi West 13.8 mph 18.4 mph N/A   Overcast
3:16 PM 46.4 °F 40.1 °F 37.4 °F 71% 29.37 in 10.0 mi West 15.0 mph - N/A   Overcast
3:36 PM 46.4 °F 40.1 °F 39.2 °F 76% 29.38 in 10.0 mi West 15.0 mph - N/A   Overcast
3:56 PM 46.4 °F 40.4 °F 39.2 °F 76% 29.39 in 10.0 mi West 13.8 mph 18.4 mph N/A   Overcast
4:16 PM 46.4 °F 40.1 °F 39.2 °F 76% 29.40 in 10.0 mi West 15.0 mph 18.4 mph N/A   Overcast
4:36 PM 44.6 °F 38.4 °F 37.4 °F 76% 29.40 in 10.0 mi West 12.7 mph 19.6 mph N/A   Overcast
4:56 PM 44.6 °F 38.1 °F 39.2 °F 81% 29.42 in 10.0 mi West 13.8 mph - N/A   Overcast
5:16 PM 44.6 °F 38.4 °F 37.4 °F 76% 29.43 in 10.0 mi West 12.7 mph - N/A   Overcast
5:36 PM 44.6 °F 37.8 °F 39.2 °F 81% 29.43 in 10.0 mi WSW 15.0 mph 18.4 mph N/A   Overcast
5:56 PM 44.6 °F 37.2 °F 37.4 °F 76% 29.44 in 10.0 mi West 17.3 mph - N/A   Overcast
6:16 PM 44.6 °F 38.1 °F 37.4 °F 76% 29.45 in 10.0 mi West 13.8 mph 19.6 mph N/A   Overcast
6:36 PM 44.6 °F 38.1 °F 37.4 °F 76% 29.46 in 10.0 mi West 13.8 mph - N/A   Overcast
6:56 PM 44.6 °F 37.8 °F 37.4 °F 76% 29.47 in 10.0 mi WSW 15.0 mph - N/A   Overcast
7:16 PM 44.6 °F 38.4 °F 39.2 °F 81% 29.47 in 7.0 mi WSW 12.7 mph - N/A   Overcast
7:36 PM 44.6 °F 38.1 °F 39.2 °F 81% 29.48 in 10.0 mi West 13.8 mph - N/A   Overcast
7:56 PM 42.8 °F 35.4 °F 39.2 °F 87% 29.48 in 10.0 mi West 15.0 mph 20.7 mph N/A   Overcast
8:16 PM 42.8 °F 35.1 °F 39.2 °F 87% 29.49 in 9.0 mi West 16.1 mph - N/A   Overcast
8:36 PM 42.8 °F 35.8 °F 39.2 °F 87% 29.50 in 10.0 mi West 13.8 mph - N/A   Overcast
8:56 PM 42.8 °F 36.6 °F 39.2 °F 87% 29.50 in 10.0 mi West 11.5 mph - N/A   Overcast
9:16 PM 44.6 °F 39.2 °F 39.2 °F 81% 29.51 in 10.0 mi West 10.4 mph - N/A   Overcast
9:36 PM 44.6 °F 37.4 °F 37.4 °F 76% 29.52 in 10.0 mi West 16.1 mph 19.6 mph N/A   Overcast
9:56 PM 44.6 °F 37.8 °F 37.4 °F 76% 29.52 in 10.0 mi WNW 15.0 mph 19.6 mph N/A   Overcast
10:16 PM 42.8 °F 37.0 °F 37.4 °F 81% 29.53 in 10.0 mi West 10.4 mph - N/A   Overcast
10:36 PM 44.6 °F 38.4 °F 37.4 °F 76% 29.53 in 10.0 mi West 12.7 mph - N/A   Overcast
10:56 PM 44.6 °F 39.7 °F 39.2 °F 81% 29.54 in 10.0 mi West 9.2 mph - N/A   Overcast
11:16 PM 44.6 °F 37.8 °F 39.2 °F 81% 29.55 in 10.0 mi West 15.0 mph - N/A   Overcast
11:36 PM 44.6 °F 38.4 °F 37.4 °F 76% 29.55 in 10.0 mi West 12.7 mph - N/A   Overcast